sat.trackr.live / text

‹ back to catalog

STARLINK-33677

NORAD 63410 · 2025-065M

PAYLOAD ACTIVE UNKNOWN

§ Identity

Operator
Country
US
Launch date
2025-03-31
Launch site
AFETR
Launch vehicle
Mass (kg)
RCS (m²)

Purposes: comms

External: N2YO · Heavens-Above · Gunter

§ Orbital elements

Epoch: 2026-09-20T21:18:07.966944Z

Period
94.27 min
Inclination
43.0032°
Eccentricity
0.0001438
Mean motion
15.27600894 rev/d
Perigee alt
482.0 km
Apogee alt
484.0 km
Semi-major
6,861.1 km
B*
3.7743e-4
RAAN
84.6372°
Arg perigee
257.9138°
Mean anomaly
102.1552°
Rev number
8,269

§ Raw data

STARLINK-336771 63410U 25065M   26263.88759221  .00010145  00000+0  37743-3 0  99902 63410  43.0032  84.6372 0001438 257.9138 102.1552 15.27600894 82692

JSON: /api/v1/satellites/63410 · /tle

For live sub-satellite position, see the globe view (requires WebGL).

§ Visibility from observer

Set your observer location to see the next 7 days of passes ≥ 10°. The values pass through the URL so the page stays shareable.

No JS? Fill the form by hand. The geolocation button needs JavaScript.